Location: Estes Par
(40.3770°N, 105.5210°W)
Time: 03:17:16
(UTC-06:00)

Oscar 11 - Visible Passes

Search period start: 20 June 2018 00:00
Search period end: 30 June 2018 00:00
Orbit: 613 x 627 km, 97.6° (Epoch: 19 June)

Date Brightness Start Highest point End Pass type
(mag) Time Alt. Az. Time Alt. Az. Time Alt. Az.
21 Jun 9.0 21:11:32 10° SSW 21:15:14 28° W 21:18:58 10° NW visible
22 Jun 9.6 21:29:32 10° SW 21:32:33 19° W 21:35:35 10° NW visible
23 Jun 9.9 21:48:17 10° WSW 21:49:55 12° W 21:51:33 10° WNW visible
26 Jun 8.6 21:01:08 10° SSW 21:05:04 36° W 21:09:02 10° NNW visible
27 Jun 9.3 21:18:55 10° SSW 21:22:22 23° W 21:25:49 10° NW visible
28 Jun 9.8 21:37:10 10° SW 21:39:42 15° W 21:42:15 10° NW visible
